GW5818 Weather Reports


time (UTC)temp
C
wind
direction
speed
KPH
gust
KPH
rain 1hr
cm
rain 24hr
cm
rain mn
cm
humidity
%
barometer
mb
20260510171513 18 94 1.6 4.8 0.00 0.53 0.00 73 1011.2
20260510170020 18 321 0.0 3.2 0.00 0.58 0.00 73 1011.3
20260510164525 18 301 0.0 4.8 0.00 0.61 0.00 74 1011.4
20260510160015 16 192 4.8 12.9 0.00 0.76 0.00 79 1011.7
20260510154520 16 36 1.6 16.1 0.00 0.81 0.00 78 1011.5
20260510153035 17 123 4.8 17.7 0.00 0.84 0.00 76 1011.6
20260510151509 16 108 1.6 9.7 0.00 0.86 0.00 77 1011.6
20260510150013 16 200 3.2 11.3 0.00 0.91 0.00 79 1011.5
20260510144528 16 112 3.2 9.7 0.00 0.97 0.00 79 1011.6
20260510143019 16 217 0.0 4.8 0.00 1.02 0.00 79 1011.6
20260510141526 15 212 0.0 3.2 0.00 1.07 0.00 83 1011.7
20260510134515 12 133 0.0 3.2 0.00 1.09 0.00 89 1011.9
20260510133019 12 191 0.0 3.2 0.00 1.09 0.00 92 1012.0
20260510131524 12 122 0.0 3.2 0.00 1.09 0.00 95 1011.9
20260510130024 11 296 1.6 3.2 0.00 1.12 0.00 97 1011.9
20260510124515 11 307 0.0 3.2 0.00 1.14 0.00 97 1012.0
20260510123017 10 287 0.0 0.0 0.00 1.14 0.00 97 1011.8
20260510121523 10 287 0.0 0.0 0.00 1.14 0.00 97 1011.8
20260510120032 10 287 0.0 3.2 0.00 1.14 0.00 97 1011.9
20260510114512 10 290 0.0 0.0 0.00 1.14 0.00 97 1012.0
20260510113020 10 290 0.0 0.0 0.00 1.17 0.00 97 1012.0
20260510111520 10 290 0.0 3.2 0.00 1.17 0.00 97 1011.9
20260510110033 10 300 0.0 0.0 0.00 1.22 0.00 1011.7
20260510104524 9 300 0.0 3.2 0.00 1.27 0.00 97 1011.5
20260510103012 9 283 0.0 3.2 0.00 1.32 0.00 97 1011.1
20260510101518 9 207 0.0 3.2 0.00 1.32 0.00 96 1011.0
20260510094522 8 32 0.0 3.2 0.00 1.32 0.00 96 1010.6
20260510093028 8 303 0.0 3.2 0.00 1.32 0.00 96 1010.3
20260510091512 8 286 0.0 3.2 0.00 1.32 0.00 96 1010.4
20260510090020 8 121 0.0 3.2 0.00 1.32 0.00 96 1010.2
20260510084523 8 121 0.0 0.0 0.00 1.32 0.00 96 1010.3
20260510083007 8 121 0.0 3.2 0.00 1.32 0.00 96 1010.8
20260510081516 8 121 0.0 3.2 0.00 1.32 0.00 96 1010.7
20260510080018 8 121 0.0 3.2 0.00 1.32 0.00 96 1010.9
20260510071509 8 121 0.0 0.0 0.00 1.32 0.00 96 1010.7
20260510070023 9 121 0.0 3.2 0.00 1.32 0.00 96 1010.4
20260510064523 9 121 0.0 0.0 0.00 1.32 0.00 96 1010.3
20260510063005 9 121 0.0 3.2 0.00 1.32 0.00 96 1010.4
20260510061506 9 12 0.0 3.2 0.00 1.32 0.00 96 1010.3
20260510060009 9 25 0.0 3.2 0.00 1.32 0.00 96 1010.6
20260510054521 9 315 0.0 0.0 0.00 1.32 0.00 96 1010.6
20260510053022 9 315 0.0 3.2 0.00 1.32 0.00 96 1010.8
20260510051509 9 5 0.0 3.2 0.00 1.32 0.00 96 1010.8
20260510050008 9 311 0.0 0.0 0.00 1.32 0.00 96 1010.8
20260510044519 9 311 0.0 3.2 0.00 1.32 0.00 96 1010.6
20260510043016 9 274 0.0 3.2 0.00 1.32 0.00 96 1010.9
20260510041523 9 327 0.0 3.2 0.00 1.32 0.00 96 1010.7
20260510040006 9 5 1.6 3.2 0.00 1.32 0.00 96 1010.7
20260510034513 9 57 0.0 3.2 0.00 1.32 1.32 96 1010.9
20260510033019 9 108 0.0 0.0 0.00 1.32 1.32 96 1010.9
20260510031522 9 108 0.0 0.0 0.00 1.32 1.32 96 1010.9
20260510030024 9 108 0.0 0.0 0.00 1.32 1.32 96 1011.0
20260510024509 9 108 0.0 3.2 0.00 1.32 1.32 96 1011.1
20260510023014 9 9 0.0 3.2 0.00 1.32 1.32 1011.0
20260510021520 9 118 0.0 3.2 0.00 1.32 1.32 96 1010.9
20260510020022 9 138 0.0 3.2 0.00 1.32 1.32 95 1011.5
20260510014526 9 169 0.0 3.2 0.00 1.32 1.32 95 1011.6
20260510013010 9 161 0.0 1.6 0.00 1.32 1.32 95 1011.7
20260510011525 9 161 0.0 1.6 0.00 1.32 1.32 95 1011.4
20260510010033 9 306 0.0 1.6 0.00 1.32 1.32 95 1011.1
20260510004524 9 306 0.0 3.2 0.00 1.32 1.32 95 1011.0
20260510003027 9 5 0.0 3.2 0.00 1.32 1.32 95 1010.7
20260510001511 9 318 0.0 3.2 0.00 1.32 1.32 95 1010.6
20260510000020 9 298 0.0 3.2 0.00 1.32 1.32 95 1010.4
20260509234525 9 261 0.0 3.2 0.00 1.32 1.32 95 1010.4
20260509233026 9 25 1.6 3.2 0.00 1.32 1.32 95 1010.8
20260509230015 8 329 0.0 0.0 0.00 1.32 1.32 94 1010.7
20260509224521 8 5 0.0 0.0 0.00 1.32 1.32 94 1010.7
20260509223025 8 302 0.0 0.0 0.00 1.32 1.32 94 1010.7
20260509221525 8 298 0.0 0.0 0.00 1.32 1.32 94 1010.6
20260509220012 8 200 0.0 0.0 0.00 1.32 1.32 94 1010.5
20260509214517 8 308 0.0 0.0 0.03 1.32 1.32 94 1010.7
20260509213022 8 308 0.0 1.6 0.05 1.32 1.32 93 1010.8
20260509211527 8 304 0.0 0.0 0.08 1.32 1.32 93 1011.1
20260509210008 8 304 0.0 0.0 0.13 1.32 1.32 93 1011.3
20260509204514 8 304 0.0 0.0 0.15 1.32 1.32 93 1011.4
20260509203018 8 304 0.0 0.0 0.15 1.30 1.30 93 1011.6
20260509201524 8 304 0.0 0.0 0.18 1.27 1.27 92 1011.8
20260509200006 8 304 0.0 0.0 0.15 1.22 1.22 93 1011.8
20260509194516 8 304 0.0 0.0 0.15 1.17 1.17 93 1011.8
20260509193014 7 304 0.0 3.2 0.18 1.14 1.14 92 1011.7
20260509191522 7 349 0.0 3.2 0.15 1.09 1.09 92 1011.7
20260509190040 7 349 0.0 3.2 0.15 1.07 1.07 92 1011.9
20260509184521 7 349 0.0 3.2 0.13 1.02 1.02 92 1012.2
20260509183012 7 349 0.0 3.2 0.10 0.97 0.97 91 1012.2
20260509181521 7 349 0.0 3.2 0.13 0.94 0.94 92 1012.3
20260509180024 7 349 0.0 3.2 0.15 0.91 0.91 91 1012.3
20260509173015 7 307 1.6 1.6 0.18 0.86 0.86 92 1012.8